Regional Weather Roundup
Issued by NWS

Home | Current Version | Previous Version | Text Only | Print | Product List | Glossary Off
Versions: 1 2 3 4 5 6 7 8 9 10 11 12 13 14 15 16 17 18 19 20 21 22 23 24 25 26 27 28 29 30 31 32 33 34 35 36 37 38 39 40 41 42 43 44 45 46 47 48 49 50

000
ASUS45 KCYS 261810
RWRWY

WYOMING REGIONAL WEATHER ROUNDUP
NATIONAL WEATHER SERVICE CHEYENNE WY
1100 AM MST THU FEB 26 2015

NOTE:  "FAIR" INDICATES FEW OR NO CLOUDS BELOW 12,000 FEET
WITH NO SIGNIFICANT WEATHER AND/OR OBSTRUCTIONS TO VISIBILITY.

WYZ001-261900-
YELLOWSTONE NATIONAL PARK

CITY           SKY/WX    TMP DP  RH WIND       PRES   REMARKS
LK YELLOWSTONE   N/A      9   0  67 VRB3      29.97F
6HR MIN TEMP:  -9; 6HR MAX TEMP:   9;

W YELLOWSTONE  NOT AVBL

$$
WYZ002>013-054>058-071-098>099-261900-
NORTHERN WYOMING

CITY           SKY/WX    TMP DP  RH WIND       PRES   REMARKS
JACKSON        MOSUNNY   14   7  73 N8        30.00S WCI   3
CODY           PTSUNNY   10   5  79 NE14      30.19S WCI  -5
GREYBULL       CLOUDY    17   4  56 N6        30.26S WCI   9
6HR MIN TEMP:  12; 6HR MAX TEMP:  18; 6HR PCP: TRACE;

WORLAND        LGT SNOW  15   9  76 CALM      30.24F VSB 3/4
6HR MIN TEMP:  13; 6HR MAX TEMP:  15; 6HR PCP: TRACE;

SHERIDAN       CLOUDY    11   1  64 CALM      30.35S
6HR MIN TEMP:   6; 6HR MAX TEMP:  11; 6HR PCP:  0.02;

BUFFALO        LGT SNOW   5  -1  76 NE6       30.25S WCI  -6
6HR MIN TEMP:   3; 6HR MAX TEMP:   6; 6HR PCP:  0.03;

GILLETTE       CLOUDY     6  -2  69 N5        30.32S HAZE    WCI  -3
6HR MIN TEMP:   2; 6HR MAX TEMP:   7; 6HR PCP: TRACE;

HULETT         FAIR       5  -6  61 N3        30.34S
NEWCASTLE      FAIR      10  -2  56 NW13G21   30.31F WCI  -5

$$
WYZ014>020-022>026-101>103-261900-
CENTRAL WYOMING

CITY           SKY/WX    TMP DP  RH WIND       PRES   REMARKS
BIG PINEY      LGT SNOW  20  13  74 E5        29.97F WCI  13
6HR MIN TEMP:  17; 6HR MAX TEMP:  21; 6HR PCP: TRACE;

PINEDALE       MOCLDY    18  12  79 CALM      29.98F
DUBOIS         FLURRIES  14   9  79 SE14      29.98R WCI  -1
LANDER         LGT SNOW  15  10  80 NE5       30.11S WCI   8
6HR MIN TEMP:  13; 6HR MAX TEMP:  15; 6HR PCP: TRACE;

RIVERTON       CLOUDY    14   7  73 E14       30.13S WCI  -1
6HR MIN TEMP:  12; 6HR MAX TEMP:  14; 6HR PCP: TRACE;

CASPER         CLOUDY    11   3  70 E12       30.18S WCI  -3
6HR MIN TEMP:  10; 6HR MAX TEMP:  11; 6HR PCP:  0.01;

DOUGLAS        LGT SNOW  11   2  67 MISG      30.24F
6HR MIN TEMP:   8; 6HR MAX TEMP:  11; 6HR PCP: TRACE;


$$
WYZ021-027>030-104>119-261900-
SOUTHERN WYOMING

CITY           SKY/WX    TMP DP  RH WIND       PRES   REMARKS
EVANSTON       CLOUDY    26  17  68 SE7       29.92F WCI  18
6HR MIN TEMP:  18; 6HR MAX TEMP:  26;

FORT BRIDGER   CLOUDY    22  19  88 N5        29.98S WCI  16
ROCK SPRINGS   LGT SNOW  20  15  81 E10       29.98S WCI   9
6HR MIN TEMP:  10; 6HR MAX TEMP:  20; 6HR PCP: TRACE;

DIXON          FAIR      26  13  57 CALM      30.01F
RAWLINS        CLOUDY    19  11  70 NE8       30.01S WCI   9
6HR MIN TEMP:  11; 6HR MAX TEMP:  19;

SARATOGA       CLOUDY    19  12  73 NW3       30.00S
LARAMIE        NOT AVBL
CHEYENNE       FLURRIES  10   2  69 E7        30.10S WCI  -1
6HR MIN TEMP:   8; 6HR MAX TEMP:  11; 6HR PCP:  0.01;

TORRINGTON     CLOUDY    14   3  61 MISG      30.29S
6HR MIN TEMP:   7; 6HR MAX TEMP:  14; 6HR PCP: TRACE;

PINE BLUFFS    CLOUDY    12   5  73 NE6       30.20F WCI   3

$$


USA.gov is the U.S. government's official web portal to all federal, state and local government web resources and services.